KC5AYO Weather Reports


Display with metric or nautical units.
time (UTC)temp
F
wind
direction
speed
MPH
gust
MPH
rain 1hr
in
rain 24hr
in
rain mn
in
humidity
%
barometer
mb
20260903015530 82 190 0.0 0.0 0.00 0.00 0.00 82 1014.1
20260903015028 82 190 0.0 0.0 0.00 0.00 0.00 81 1014.2
20260903014528 82 190 0.0 0.0 0.00 0.00 0.00 81 1014.2
20260903014033 82 190 0.0 0.0 0.00 0.00 0.00 81 1014.1
20260903013529 82 190 0.0 0.0 0.00 0.00 0.00 80 1014.0
20260903013028 82 190 0.0 0.0 0.00 0.00 0.00 80 1014.1
20260903012527 83 190 0.0 0.0 0.00 0.00 0.00 79 1014.1
20260903012028 83 190 0.0 0.0 0.00 0.00 0.00 79 1013.9
20260903011528 83 190 0.0 0.0 0.00 0.00 0.00 79 1013.8
20260903011028 83 190 0.0 0.0 0.00 0.00 0.00 78 1013.8
20260903010527 83 190 0.0 0.0 0.00 0.00 0.00 77 1013.7
20260903010027 84 190 0.0 0.0 0.00 0.00 0.00 76 1013.7
20260903005527 84 190 0.0 0.0 0.00 0.00 0.00 76 1013.7
20260903005027 84 190 0.0 0.0 0.00 0.00 0.00 76 1013.6
20260903004527 84 190 0.0 0.0 0.00 0.00 0.00 76 1013.6
20260903004026 84 190 0.0 0.0 0.00 0.00 0.00 75 1013.6
20260903003526 85 190 0.0 0.0 0.00 0.00 0.00 75 1013.6
20260903003026 85 190 0.0 0.0 0.00 0.00 0.00 73 1013.6
20260903002530 85 190 0.0 0.0 0.00 0.00 0.00 73 1013.5
20260903002025 86 190 0.0 0.0 0.00 0.00 0.00 71 1013.6
20260903001525 86 190 0.0 0.0 0.00 0.00 0.00 71 1013.6
20260903001024 87 190 0.0 0.0 0.00 0.00 0.00 70 1013.6
20260903000524 87 190 0.0 2.0 0.00 0.00 0.00 69 1013.6
20260903000032 88 195 0.0 2.0 0.00 0.00 0.00 67 1013.6
20260902235524 88 206 0.0 2.0 0.00 0.00 0.00 68 1013.6
20260902235023 88 237 0.0 2.0 0.00 0.00 0.00 66 1013.6
20260902234527 89 247 0.0 2.0 0.00 0.00 0.00 65 1013.6
20260902234023 89 210 0.0 1.0 0.00 0.00 0.00 66 1013.6
20260902233622 89 157 0.0 0.0 0.00 0.00 0.00 66 1013.6
20260902233022 90 168 0.0 0.0 0.00 0.00 0.00 64 1013.6
20260902232524 90 168 0.0 0.0 0.00 0.00 0.00 63 1013.5
20260902232021 90 178 0.0 0.0 0.00 0.00 0.00 63 1013.6
20260902231524 91 135 0.0 0.0 0.00 0.00 0.00 59 1013.6
20260902231024 91 178 0.0 0.0 0.00 0.00 0.00 59 1013.7
20260902230521 91 155 0.0 0.0 0.00 0.00 0.00 59 1013.7
20260902230022 92 170 0.0 0.0 0.00 0.00 0.00 59 1013.7
20260902225521 92 172 0.0 1.0 0.00 0.00 0.00 59 1013.7
20260902225021 92 144 0.0 2.0 0.00 0.00 0.00 59 1013.6
20260902224521 92 202 0.0 2.0 0.00 0.00 0.00 58 1013.7
20260902224024 92 163 0.0 2.0 0.00 0.00 0.00 58 1013.8
20260902223520 92 314 0.0 2.0 0.00 0.00 0.00 60 1013.7
20260902223032 92 149 0.0 2.0 0.00 0.00 0.00 57 1013.8
20260902222519 93 282 0.0 2.0 0.00 0.00 0.00 57 1013.7
20260902222018 93 150 0.0 2.0 0.00 0.00 0.00 57 1013.8
20260902221521 93 249 0.0 2.0 0.00 0.00 0.00 57 1013.9
20260902221018 93 138 0.0 2.0 0.00 0.00 0.00 56 1013.9
20260902220518 93 159 0.0 2.0 0.00 0.00 0.00 55 1013.9
20260902220017 93 194 0.0 3.0 0.00 0.00 0.00 56 1013.9
20260902215517 93 190 1.0 3.0 0.00 0.00 0.00 55 1013.9
20260902215017 93 122 0.0 3.0 0.00 0.00 0.00 58 1014.0
20260902214517 93 175 0.0 2.0 0.00 0.00 0.00 55 1013.9
20260902214017 93 262 0.0 2.0 0.00 0.00 0.00 57 1014.1
20260902213516 93 309 0.0 2.0 0.00 0.00 0.00 56 1014.0
20260902213015 93 140 0.0 3.0 0.00 0.00 0.00 55 1014.0
20260902212515 93 269 0.0 3.0 0.00 0.00 0.00 54 1014.0
20260902212017 93 171 0.0 2.0 0.00 0.00 0.00 54 1014.0
20260902211518 93 289 0.0 2.0 0.00 0.00 0.00 55 1014.1
20260902211014 94 355 0.0 3.0 0.00 0.00 0.00 55 1014.1
20260902210517 93 119 0.0 4.0 0.00 0.00 0.00 53 1014.1
20260902210013 94 284 0.0 4.0 0.00 0.00 0.00 56 1014.1
20260902205512 94 209 1.0 4.0 0.00 0.00 0.00 53 1014.1
20260902205013 94 190 1.0 5.0 0.00 0.00 0.00 54 1014.1
20260902204524 94 46 1.0 3.0 0.00 0.00 0.00 54 1014.2
20260902204012 94 190 0.0 3.0 0.00 0.00 0.00 53 1014.1
20260902203515 94 188 0.0 3.0 0.00 0.00 0.00 53 1014.2
20260902203012 94 71 0.0 2.0 0.00 0.00 0.00 52 1014.2
20260902202510 94 302 0.0 3.0 0.00 0.00 0.00 52 1014.2
20260902202012 94 302 0.0 3.0 0.00 0.00 0.00 52 1014.2
20260902201509 94 311 0.0 3.0 0.00 0.00 0.00 51 1014.4
20260902201009 94 255 0.0 3.0 0.00 0.00 0.00 51 1014.3
20260902200509 94 157 0.0 5.0 0.00 0.00 0.00 52 1014.4
20260902200009 95 137 0.0 5.0 0.00 0.00 0.00 51 1014.3
20260902195507 94 265 0.0 4.0 0.00 0.00 0.00 50 1014.5
20260902195008 94 308 0.0 3.0 0.00 0.00 0.00 52 1014.5
20260902194507 95 187 0.0 3.0 0.00 0.00 0.00 53 1014.5
20260902194107 95 90 0.0 2.0 0.00 0.00 0.00 53 1014.6
20260902193507 94 164 0.0 4.0 0.00 0.00 0.00 52 1014.7
20260902193006 94 275 0.0 4.0 0.00 0.00 0.00 53 1014.6
20260902192505 95 302 0.0 3.0 0.00 0.00 0.00 52 1014.7
20260902192005 94 198 0.0 4.0 0.00 0.00 0.00 54 1014.8
20260902191505 95 288 0.0 4.0 0.00 0.00 0.00 53 1014.8
20260902191004 95 295 0.0 3.0 0.00 0.00 0.00 52 1014.8
20260902190507 94 94 0.0 3.0 0.00 0.00 0.00 53 1014.8
20260902190006 94 306 1.0 3.0 0.00 0.00 0.00 54 1014.8
20260902185504 95 291 0.0 5.0 0.00 0.00 0.00 55 1014.9
20260902185004 95 242 0.0 5.0 0.00 0.00 0.00 54 1014.8
20260902184503 95 142 0.0 5.0 0.00 0.00 0.00 55 1014.9
20260902184003 95 269 1.0 5.0 0.00 0.00 0.00 53 1014.9
20260902183502 95 292 0.0 3.0 0.00 0.00 0.00 52 1015.0
20260902183004 95 319 0.0 2.0 0.00 0.00 0.00 54 1015.0
20260902182501 95 303 0.0 3.0 0.00 0.00 0.00 55 1015.1
20260902182100 95 9 0.0 6.0 0.00 0.00 0.00 54 1015.3
20260902182001 95 248 0.0 6.0 0.00 0.00 0.00 54 1015.3
20260902181612 95 20 0.0 6.0 0.00 0.00 0.00 56 1015.2
20260902181059 94 124 0.0 4.0 0.00 0.00 0.00 54 1015.2
20260902180558 94 244 0.0 4.0 0.00 0.00 0.00 55 1015.3
20260902180059 94 273 0.0 3.0 0.00 0.00 0.00 57 1015.4
20260902175558 94 144 0.0 3.0 0.00 0.00 0.00 56 1015.5
20260902175059 94 146 0.0 2.0 0.00 0.00 0.00 57 1015.5
20260902174600 94 86 0.0 4.0 0.00 0.00 0.00 57 1015.5
20260902174057 93 297 0.0 4.0 0.00 0.00 0.00 56 1015.6
20260902173556 94 308 0.0 2.0 0.00 0.00 0.00 55 1015.6
20260902173109 94 250 0.0 3.0 0.00 0.00 0.00 58 1015.7
20260902172554 93 171 0.0 3.0 0.00 0.00 0.00 55 1015.8
20260902172053 93 325 0.0 3.0 0.00 0.00 0.00 58 1015.9
20260902171552 93 243 0.0 3.0 0.00 0.00 0.00 59 1015.8
20260902171051 93 288 0.0 3.0 0.00 0.00 0.00 58 1015.8
20260902170549 93 312 0.0 3.0 0.00 0.00 0.00 59 1016.0
20260902170052 93 189 0.0 3.0 0.00 0.00 0.00 61 1016.0
20260902165547 92 169 0.0 4.0 0.00 0.00 0.00 58 1016.0
20260902165046 92 336 0.0 4.0 0.00 0.00 0.00 60 1016.1
20260902164547 92 103 0.0 4.0 0.00 0.00 0.00 60 1016.1
20260902164044 92 129 0.0 3.0 0.00 0.00 0.00 61 1016.3
20260902163542 92 245 0.0 4.0 0.00 0.00 0.00 62 1016.2
20260902163044 91 173 0.0 4.0 0.00 0.00 0.00 65 1016.2
20260902162539 91 239 0.0 7.0 0.00 0.00 0.00 65 1016.3
20260902162037 91 329 0.0 7.0 0.00 0.00 0.00 65 1016.3
20260902161536 90 67 0.0 3.0 0.00 0.00 0.00 65 1016.3
20260902161035 90 134 0.0 2.0 0.00 0.00 0.00 64 1016.3
20260902160533 89 273 0.0 3.0 0.00 0.00 0.00 68 1016.3
20260902160032 89 88 0.0 3.0 0.00 0.00 0.00 66 1016.2
20260902155532 88 184 0.0 2.0 0.00 0.00 0.00 69 1016.3
20260902155030 88 298 0.0 2.0 0.00 0.00 0.00 68 1016.3
20260902154529 87 327 0.0 3.0 0.00 0.00 0.00 67 1016.3
20260902154028 87 112 1.0 3.0 0.00 0.00 0.00 66 1016.3
20260902153526 87 315 0.0 3.0 0.00 0.00 0.00 68 1016.4
20260902153025 87 143 0.0 3.0 0.00 0.00 0.00 68 1016.4
20260902152524 86 138 1.0 3.0 0.00 0.00 0.00 68 1016.4
20260902152126 86 171 0.0 3.0 0.00 0.00 0.00 73 1016.4
20260902151522 86 198 0.0 3.0 0.00 0.00 0.00 71 1016.3
20260902151021 86 196 1.0 3.0 0.00 0.00 0.00 71 1016.4
20260902150519 86 132 0.0 4.0 0.00 0.00 0.00 71 1016.4
20260902150019 85 273 0.0 4.0 0.00 0.00 0.00 73 1016.4
20260902145518 85 305 0.0 3.0 0.00 0.00 0.00 73 1016.5
20260902145018 85 161 0.0 4.0 0.00 0.00 0.00 73 1016.5
20260902144515 84 346 0.0 4.0 0.00 0.00 0.00 73 1016.5
20260902144014 84 153 0.0 2.0 0.00 0.00 0.00 76 1016.5
20260902143512 84 151 0.0 2.0 0.00 0.00 0.00 76 1016.6
20260902143011 83 291 0.0 2.0 0.00 0.00 0.00 76 1016.6
20260902142511 83 214 0.0 3.0 0.00 0.00 0.00 76 1016.6
20260902142009 83 175 0.0 3.0 0.00 0.00 0.00 78 1016.7
20260902141508 82 302 0.0 0.0 0.00 0.00 0.00 79 1016.6
20260902141010 82 194 0.0 0.0 0.00 0.00 0.00 80 1016.6
20260902140507 82 252 0.0 0.0 0.00 0.00 0.00 78 1016.6
20260902140006 82 199 0.0 0.0 0.00 0.00 0.00 77 1016.7
20260902135507 81 205 0.0 0.0 0.00 0.00 0.00 80 1016.6
20260902135008 81 205 0.0 0.0 0.00 0.00 0.00 81 1016.7
20260902134504 81 208 0.0 0.0 0.00 0.00 0.00 80 1016.6
20260902134002 80 223 0.0 0.0 0.00 0.00 0.00 81 1016.7
20260902133600 80 182 0.0 0.0 0.00 0.00 0.00 82 1016.7
20260902133107 79 133 0.0 0.0 0.00 0.00 0.00 84 1016.8
20260902132558 79 161 0.0 0.0 0.00 0.00 0.00 84 1016.7
20260902132102 79 161 0.0 0.0 0.00 0.00 0.00 83 1016.7
20260902131557 78 160 0.0 0.0 0.00 0.00 0.00 84 1016.8
20260902131057 78 160 0.0 0.0 0.00 0.00 0.00 85 1016.7
20260902130555 78 160 0.0 0.0 0.00 0.00 0.00 85 1016.8
20260902125556 77 160 0.0 0.0 0.00 0.00 0.00 86 1016.8
20260902125056 76 160 0.0 0.0 0.00 0.00 0.00 86 1016.7
20260902124555 76 160 0.0 0.0 0.00 0.00 0.00 87 1016.7
20260902124056 76 160 0.0 0.0 0.00 0.00 0.00 87 1016.7
20260902123556 76 160 0.0 0.0 0.00 0.00 0.00 87 1016.8
20260902123056 75 160 0.0 0.0 0.00 0.00 0.00 88 1016.7
20260902122553 75 160 0.0 0.0 0.00 0.00 0.00 88 1016.7
20260902122052 75 160 0.0 0.0 0.00 0.00 0.00 88 1016.8
20260902121553 74 160 0.0 0.0 0.00 0.00 0.00 88 1016.7
20260902121051 74 160 0.0 0.0 0.00 0.00 0.00 89 1016.7
20260902120554 74 160 0.0 0.0 0.00 0.00 0.00 89 1016.5
20260902120051 74 160 0.0 0.0 0.00 0.00 0.00 90 1016.5
20260902115552 74 160 0.0 0.0 0.00 0.00 0.00 89 1016.5
20260902115049 73 160 0.0 0.0 0.00 0.00 0.00 89 1016.4
20260902114549 73 160 0.0 0.0 0.00 0.00 0.00 90 1016.4
20260902114050 73 160 0.0 0.0 0.00 0.00 0.00 90 1016.4
20260902113546 73 160 0.0 0.0 0.00 0.00 0.00 90 1016.3
20260902113048 73 160 0.0 0.0 0.00 0.00 0.00 90 1016.1
20260902112545 73 171 0.0 0.0 0.00 0.00 0.00 90 1016.1
20260902112048 73 185 0.0 0.0 0.00 0.00 0.00 90 1016.1
20260902111544 73 185 0.0 0.0 0.00 0.00 0.00 89 1016.0
20260902111043 73 185 0.0 0.0 0.00 0.00 0.00 89 1015.9
20260902110543 74 185 0.0 0.0 0.00 0.00 0.00 89 1015.8
20260902110050 74 185 0.0 0.0 0.00 0.00 0.00 89 1015.9
20260902105541 74 185 0.0 0.0 0.00 0.00 0.00 88 1015.9
20260902105040 74 185 0.0 0.0 0.00 0.00 0.00 88 1015.8
20260902104554 74 185 0.0 0.0 0.00 0.00 0.00 88 1015.8
20260902104039 74 185 0.0 0.0 0.00 0.00 0.00 88 1015.9
20260902103537 74 185 0.0 0.0 0.00 0.00 0.00 87 1015.7
20260902103057 75 185 0.0 0.0 0.00 0.00 0.00 87 1015.8
20260902102537 75 185 0.0 0.0 0.00 0.00 0.00 87 1015.7
20260902102037 75 185 0.0 0.0 0.00 0.00 0.00 86 1015.7
20260902101537 75 185 0.0 0.0 0.00 0.00 0.00 86 1015.7
20260902101035 75 185 0.0 0.0 0.00 0.00 0.00 86 1015.7
20260902100535 75 185 0.0 0.0 0.00 0.00 0.00 86 1015.7
20260902100037 75 185 0.0 0.0 0.00 0.00 0.00 86 1015.6
20260902095534 75 185 0.0 0.0 0.00 0.00 0.00 85 1015.7
20260902095037 75 185 0.0 0.0 0.00 0.00 0.00 85 1015.7
20260902094536 76 185 0.0 0.0 0.00 0.00 0.00 85 1015.5
20260902094034 76 185 0.0 0.0 0.00 0.00 0.00 85 1015.5
20260902093533 75 185 0.0 0.0 0.00 0.00 0.00 85 1015.5
20260902093033 76 185 0.0 0.0 0.00 0.00 0.00 85 1015.5
20260902092533 76 185 0.0 0.0 0.00 0.00 0.00 85 1015.4
20260902092033 75 185 0.0 0.0 0.00 0.00 0.00 86 1015.5
20260902091533 75 185 0.0 0.0 0.00 0.00 0.00 86 1015.5
20260902091032 75 185 0.0 0.0 0.00 0.00 0.00 86 1015.4
20260902090532 75 185 0.0 0.0 0.00 0.00 0.00 86 1015.4
20260902090038 75 185 0.0 0.0 0.00 0.00 0.00 86 1015.4
20260902085531 75 185 0.0 0.0 0.00 0.00 0.00 86 1015.3
20260902085031 75 185 0.0 0.0 0.00 0.00 0.00 86 1015.4
20260902084538 76 185 0.0 0.0 0.00 0.00 0.00 86 1015.4
20260902084032 75 185 0.0 0.0 0.00 0.00 0.00 86 1015.3
20260902083533 75 185 0.0 0.0 0.00 0.00 0.00 86 1015.3
20260902083030 76 185 0.0 0.0 0.00 0.00 0.00 86 1015.2
20260902082531 76 185 0.0 0.0 0.00 0.00 0.00 86 1015.2
20260902082030 76 185 0.0 0.0 0.00 0.00 0.00 86 1015.1
20260902081530 76 185 0.0 0.0 0.00 0.00 0.00 86 1015.0
20260902081030 76 185 0.0 0.0 0.00 0.00 0.00 86 1015.1
20260902080529 76 185 0.0 0.0 0.00 0.00 0.00 86 1015.0
20260902080030 76 185 0.0 0.0 0.00 0.00 0.00 86 1015.0
20260902075529 76 185 0.0 0.0 0.00 0.00 0.00 86 1015.1
20260902075029 75 185 0.0 0.0 0.00 0.00 0.00 87 1015.1
20260902074529 75 185 0.0 0.0 0.00 0.00 0.00 87 1015.0
20260902074029 75 185 0.0 0.0 0.00 0.00 0.00 87 1015.1
20260902073527 75 185 0.0 0.0 0.00 0.00 0.00 88 1015.1
20260902073029 76 185 0.0 0.0 0.00 0.00 0.00 88 1015.1
20260902072526 76 185 0.0 0.0 0.00 0.00 0.00 88 1015.1
20260902072026 76 185 0.0 0.0 0.00 0.00 0.00 87 1015.0
20260902071526 76 185 0.0 0.0 0.00 0.00 0.00 86 1015.0
20260902071026 76 185 0.0 0.0 0.00 0.00 0.00 86 1014.9
20260902070525 76 185 0.0 0.0 0.00 0.00 0.00 86 1015.0
20260902070026 76 185 0.0 0.0 0.00 0.00 0.00 86 1014.9
20260902065527 76 185 0.0 0.0 0.00 0.00 0.00 86 1015.0
20260902065027 76 185 0.0 0.0 0.00 0.00 0.00 86 1015.0
20260902064525 76 185 0.0 0.0 0.00 0.00 0.00 86 1015.1
20260902064027 76 185 0.0 0.0 0.00 0.00 0.00 86 1015.2
20260902063523 76 185 0.0 0.0 0.00 0.00 0.00 86 1015.2
20260902063043 76 185 0.0 0.0 0.00 0.00 0.00 86 1015.1
20260902062527 76 185 0.0 0.0 0.00 0.00 0.00 86 1015.2
20260902062023 76 185 0.0 0.0 0.00 0.00 0.00 86 1015.1
20260902061531 76 185 0.0 0.0 0.00 0.00 0.00 87 1015.0
20260902061023 76 185 0.0 0.0 0.00 0.00 0.00 86 1015.1
20260902060522 76 185 0.0 0.0 0.00 0.00 0.00 87 1015.1
20260902060123 76 185 0.0 0.0 0.00 0.00 0.00 87 1015.0
20260902055521 76 185 0.0 0.0 0.00 0.00 0.00 87 1015.0
20260902055021 76 185 0.0 0.0 0.00 0.00 0.00 87 1014.9
20260902054523 76 185 0.0 0.0 0.00 0.00 0.00 87 1015.0
20260902054020 76 185 0.0 0.0 0.00 0.00 0.00 87 1014.9
20260902053522 76 185 0.0 0.0 0.00 0.00 0.00 86 1014.9
20260902053020 77 185 0.0 0.0 0.00 0.00 0.00 87 1014.9
20260902052519 77 185 0.0 0.0 0.00 0.00 0.00 86 1014.9
20260902052018 77 185 0.0 0.0 0.00 0.00 0.00 86 1014.9
20260902051518 77 185 0.0 0.0 0.00 0.00 0.00 86 1014.8
20260902051018 77 185 0.0 0.0 0.00 0.00 0.00 86 1014.9
20260902050518 77 185 0.0 0.0 0.00 0.00 0.00 87 1014.8
20260902050021 77 185 0.0 0.0 0.00 0.00 0.00 87 1014.8
20260902045516 77 185 0.0 0.0 0.00 0.00 0.00 87 1014.9
20260902045016 77 185 0.0 0.0 0.00 0.00 0.00 87 1014.9
20260902044531 77 185 0.0 0.0 0.00 0.00 0.00 86 1014.9
20260902044015 77 185 0.0 0.0 0.00 0.00 0.00 86 1014.9
20260902043516 78 185 0.0 0.0 0.00 0.00 0.00 86 1014.9
20260902043014 78 185 0.0 0.0 0.00 0.00 0.00 86 1014.9
20260902042513 78 185 0.0 0.0 0.00 0.00 0.00 86 1014.9
20260902042016 78 185 0.0 0.0 0.00 0.00 0.00 85 1015.0
20260902041511 78 185 0.0 0.0 0.00 0.00 0.00 85 1015.0
20260902041010 79 185 0.0 0.0 0.00 0.00 0.00 84 1015.0
20260902040509 79 185 0.0 0.0 0.00 0.00 0.00 83 1015.0
20260902040009 79 185 0.0 0.0 0.00 0.00 0.00 83 1015.0
20260902035509 79 185 0.0 0.0 0.00 0.00 0.00 82 1015.0
20260902035008 80 185 0.0 0.0 0.00 0.00 0.00 82 1014.9
20260902034508 80 185 0.0 0.0 0.00 0.00 0.00 82 1014.9
20260902034008 80 185 0.0 0.0 0.00 0.00 0.00 83 1015.0
20260902033507 79 185 0.0 0.0 0.00 0.00 0.00 83 1014.9
20260902033007 79 185 0.0 0.0 0.00 0.00 0.00 84 1015.0
20260902032511 79 185 0.0 0.0 0.00 0.00 0.00 84 1014.9
20260902032007 80 185 0.0 0.0 0.00 0.00 0.00 83 1014.9
20260902031523 79 185 0.0 0.0 0.00 0.00 0.00 84 1015.0
20260902031007 79 185 0.0 0.0 0.00 0.00 0.00 84 1014.9
20260902030512 79 185 0.0 0.0 0.00 0.00 0.00 84 1014.9
20260902030006 79 185 0.0 0.0 0.00 0.00 0.00 84 1015.0
20260902025506 80 185 0.0 0.0 0.00 0.00 0.00 84 1015.0
20260902025008 80 185 0.0 0.0 0.00 0.00 0.00 84 1015.1
20260902024506 80 185 0.0 0.0 0.00 0.00 0.00 83 1015.1
20260902024007 80 185 0.0 0.0 0.00 0.00 0.00 83 1015.1
20260902023505 80 185 0.0 0.0 0.00 0.00 0.00 83 1015.0
20260902023014 80 185 0.0 0.0 0.00 0.00 0.00 83 1014.9
20260902022505 80 185 0.0 0.0 0.00 0.00 0.00 83 1014.9
20260902022008 80 185 0.0 0.0 0.00 0.00 0.00 83 1014.9
20260902021506 81 185 0.0 0.0 0.00 0.00 0.00 83 1015.0
20260902021005 81 185 0.0 0.0 0.00 0.00 0.00 83 1014.8
20260902020505 81 185 0.0 0.0 0.00 0.00 0.00 82 1014.8
20260902020005 81 185 0.0 0.0 0.00 0.00 0.00 82 1014.8